Simultaneous Nadir Overpasses (SNOs) Predictions

Prediction of SNOs between AURA and NPP Satellite Orbit:

Table of predicted SNOs for the next 14.0 days since TLE Epoch: 5/30/2014
Index Date (AURA) Time (AURA) Lat,Lon (AURA) SZA (AURA ) Date (NPP) Time (NPP) Lat,Lon (NPP) SZA (NPP ) Distance(km) Time Diff (sec)
1 06/01/2014 15:52:21 -76.96, 6.26 106.09 06/01/2014 15:52:08 -76.96, 6.29 106.09 1.05 13
2 06/01/2014 16:41:35 77.50, 175.98 73.25 06/01/2014 16:42:40 77.49, 175.90 73.22 2.08 65
3 06/04/2014 07:19:30 76.54, -46.96 74.10 06/04/2014 07:18:30 76.56, -46.86 74.13 2.82 60
4 06/04/2014 08:08:47 -77.04, 122.45 106.50 06/04/2014 08:09:05 -77.03, 122.35 106.49 2.81 18
5 06/06/2014 23:35:54 76.70, 69.48 73.66 06/06/2014 23:35:25 76.71, 69.50 73.68 0.56 29
6 06/07/2014
